Wind_Speed
21 19 17 15 13 11 10 10 8 7 4 4 4 5 6 7 7 7 7 6 6 7 7 7 7 6 5 6 6 6 8 9 10 12 14 16 17 18 19 19 20 20 20 20
20 18 17 16 13 12 9 7 6 5 3 3 3 3 4 5 6 7 7 6 6 7 7 7 7 7 6 6 6 7 8 9 10 12 14 15 17 18 18 19 19 20 20 20
19 17 16 14 11 9 8 6 5 4 3 3 2 2 3 4 5 6 6 6 6 6 6 7 7 7 7 7 7 7 8 9 10 12 13 15 16 17 17 18 19 19 20 19
19 16 13 11 10 8 6 5 4 3 2 2 1 1 2 3 3 4 6 6 6 6 7 7 7 7 7 7 7 8 9 9 10 11 13 14 15 16 17 17 18 19 19 19
17 15 13 11 9 7 6 5 4 2 1 1 2 2 2 3 4 5 7 8 7 7 7 8 8 8 8 8 8 8 9 10 10 11 12 13 14 15 16 17 18 18 19 19
15 13 11 10 8 7 6 4 3 1 1 2 3 3 3 5 6 7 8 8 8 8 8 8 8 8 8 8 8 9 9 10 10 10 11 12 13 14 15 16 17 18 18 18
14 12 10 8 7 6 5 3 2 1 2 2 4 5 5 7 8 9 10 10 10 9 9 9 9 9 9 9 9 9 10 10 10 10 10 11 12 13 14 15 16 17 18 18
12 11 10 8 6 5 3 2 2 2 3 3 5 6 8 9 10 11 12 11 11 10 9 9 10 10 9 10 10 10 10 10 10 10 10 11 11 12 13 14 15 16 17 17
11 10 8 7 5 3 2 2 3 4 5 6 6 8 10 12 13 14 13 12 12 11 10 10 10 11 11 11 11 11 11 11 10 10 10 10 11 11 12 13 14 15 16 16
8 7 6 5 3 2 2 3 4 5 6 7 8 9 11 13 14 15 14 13 12 11 12 12 12 12 12 12 12 12 12 12 11 11 11 11 11 11 12 13 14 14 15 15
5 5 4 3 3 3 4 5 6 7 8 9 9 10 13 14 16 16 15 14 13 12 12 13 13 13 14 14 14 14 14 13 12 12 12 11 11 11 11 12 13 13 14 14
3 2 2 1 2 4 5 6 7 8 9 10 11 10 14 16 17 17 16 15 14 13 12 13 14 14 15 15 15 15 15 15 14 14 13 13 12 11 11 11 12 12 13 13
1 1 1 2 3 4 6 7 9 10 10 11 13 12 15 16 17 17 17 16 15 14 14 14 14 15 16 16 17 17 17 17 16 16 15 14 13 12 12 11 11 12 12 12
2 3 3 4 6 7 7 9 10 11 12 13 13 14 15 16 17 18 18 18 17 16 15 15 15 16 17 17 18 18 19 19 18 18 17 16 15 14 13 12 12 11 11 12
4 5 6 7 8 9 10 11 12 13 13 14 15 16 17 17 18 18 18 18 18 17 17 17 17 17 18 18 19 20 20 20 20 19 19 18 17 16 15 14 13 12 11 11
7 8 9 9 10 11 12 13 14 15 15 16 17 18 19 19 19 19 19 19 19 18 18 19 18 18 19 19 20 21 21 22 22 21 21 20 19 18 17 16 14 13 12 12
9 10 10 11 12 13 13 14 16 17 17 18 18 19 20 20 20 21 21 21 21 20 21 21 20 20 20 21 21 22 22 23 23 23 23 22 21 20 19 18 16 15 14 13
11 12 13 13 14 15 15 17 18 19 19 20 20 21 22 22 21 22 22 22 23 23 23 23 22 22 22 23 23 23 24 24 25 25 25 25 24 23 22 20 19 18 16 15
14 15 16 17 18 18 18 19 21 22 23 23 24 24 24 25 25 25 25 25 25 25 25 25 25 25 25 25 25 25 25 25 26 26 26 27 27 26 25 23 22 21 19 17
18 18 19 20 22 22 22 22 24 25 26 26 27 27 27 28 29 28 28 28 28 28 28 28 28 28 28 28 28 28 27 28 27 28 28 29 29 28 27 26 25 23 22 20
21 22 23 24 26 27 27 27 27 29 30 30 31 31 31 32 33 33 33 33 32 32 32 32 31 31 31 31 31 31 30 30 30 30 30 31 30 30 30 29 28 26 25 23
24 26 27 28 29 30 32 32 33 34 35 35 36 36 36 36 37 37 38 38 38 37 36 36 35 35 35 35 34 34 34 34 33 33 33 33 32 32 32 32 30 29 28 26
28 30 31 32 33 35 36 36 37 38 39 39 40 41 41 41 41 41 42 42 42 42 41 40 40 39 38 38 38 37 37 37 37 36 35 35 34 34 34 34 33 31 30 29
32 34 35 36 37 38 39 40 40 41 42 43 44 45 45 46 46 46 46 46 47 47 46 46 44 43 42 42 42 41 40 41 40 40 39 38 37 36 36 36 35 34 32 31
35 37 38 39 40 41 42 42 43 44 45 46 47 48 48 49 49 50 50 50 50 51 51 50 49 48 46 46 45 45 45 44 44 43 42 41 40 39 38 37 37 36 34 33
38 40 42 42 43 45 44 45 46 47 48 49 50 51 52 52 53 54 54 54 54 54 54 54 53 52 50 49 48 48 48 48 47 46 45 44 43 42 41 40 39 38 37 35
Wind_Direction
175 181 185 187 192 197 202 206 209 211 226 253 268 266 275 278 278 284 289 299 302 299 295 287 278 277 276 278 288 304 315 324 332 337 340 342 344 346 347 349 349 349 350 350
165 172 178 184 186 188 193 195 205 210 223 254 277 288 285 280 279 282 288 297 300 295 290 287 278 274 273 274 287 301 312 321 329 335 339 342 344 346 348 350 351 352 351 350
163 172 178 179 175 174 183 183 189 199 207 232 249 284 299 291 286 289 297 300 300 299 296 292 281 272 272 273 283 296 308 316 324 332 337 341 344 346 349 351 352 353 353 352
156 159 167 173 172 163 156 151 159 179 190 216 260 277 297 305 306 304 313 310 311 309 299 292 282 275 273 272 279 291 302 311 319 328 334 339 344 347 349 351 353 354 355 355
148 148 153 157 156 152 154 160 162 168 198 260 286 296 324 326 340 331 321 315 313 308 300 293 285 281 276 273 277 286 298 306 315 323 331 338 343 346 349 352 353 356 357 357
138 141 144 143 147 152 156 162 169 184 251 270 288 305 329 339 341 337 331 322 316 310 302 294 289 283 276 273 274 282 293 300 308 318 327 335 341 345 348 351 353 356 357 357
128 130 132 135 138 147 152 162 187 239 272 282 295 305 324 334 338 331 328 321 313 307 302 294 288 284 277 273 273 279 288 294 301 312 321 330 338 343 346 350 352 354 357 358
127 129 132 134 139 149 164 179 219 246 274 279 295 304 316 324 327 323 319 317 311 303 300 294 288 284 279 273 271 275 283 290 296 304 313 322 332 339 343 346 350 352 355 358
131 134 137 138 141 151 173 234 263 273 283 298 304 308 310 310 313 315 315 316 312 304 299 294 287 282 278 272 269 272 278 283 289 296 303 312 323 332 338 343 347 351 354 357
127 132 141 147 154 183 240 274 285 287 291 296 299 301 303 307 311 313 316 317 314 305 299 293 285 280 276 271 268 270 274 278 283 288 293 302 313 323 331 338 344 348 352 355
113 131 139 162 197 233 260 278 288 292 296 298 299 300 300 301 305 310 316 317 312 304 295 288 283 279 275 271 268 268 271 274 277 281 285 293 302 311 321 330 338 344 348 352
108 124 154 200 240 251 265 279 289 294 297 298 299 301 296 298 304 310 315 314 310 303 294 287 282 278 274 271 269 268 269 271 273 275 278 283 291 300 309 319 329 337 343 347
39 332 299 286 286 284 291 296 298 299 300 302 303 303 297 302 307 310 313 312 310 306 299 293 285 279 275 272 270 268 267 268 269 271 273 277 282 289 296 306 316 326 334 340
331 319 310 304 299 298 298 295 295 299 302 304 305 304 300 301 304 306 307 308 307 306 302 296 289 281 275 272 270 268 266 266 266 266 269 271 276 281 286 293 302 312 322 330
325 320 316 311 306 309 309 306 302 301 303 304 304 302 301 300 301 302 303 305 305 303 301 298 292 284 277 273 271 269 267 266 265 265 265 267 270 274 279 284 290 299 308 317
323 319 315 312 308 309 308 304 301 300 300 302 303 302 301 302 303 304 303 303 302 300 298 297 295 289 282 277 273 269 267 266 265 264 264 263 265 268 272 276 281 287 294 303
323 320 315 311 309 310 308 302 300 300 301 303 303 302 301 302 303 302 300 301 300 298 296 295 294 290 285 280 276 272 268 266 264 264 263 262 261 263 266 270 273 278 283 290
314 313 311 310 307 308 306 303 303 303 303 304 304 303 303 303 302 300 299 297 296 295 294 293 291 290 286 282 277 273 270 267 265 264 263 261 260 260 262 265 268 271 275 280
308 307 307 306 305 304 303 303 303 304 304 304 304 303 302 301 300 298 296 295 294 292 291 290 288 287 284 281 278 274 271 268 266 264 263 261 259 259 259 262 264 266 269 273
304 304 304 305 304 304 304 303 303 302 302 304 303 302 300 298 296 295 294 293 292 291 290 288 286 284 282 280 277 273 270 268 267 265 263 262 260 258 258 259 261 263 265 267
301 302 303 304 304 304 305 305 303 302 304 302 302 300 298 295 294 292 291 290 289 288 287 286 284 282 280 278 275 273 271 268 266 264 263 261 260 259 258 257 258 260 262 263
298 300 301 301 302 303 303 303 303 302 301 300 299 298 296 294 292 291 290 289 288 287 285 283 282 280 279 277 274 272 270 268 266 264 263 261 259 258 257 257 257 258 259 261
297 298 298 299 300 300 301 300 299 299 298 298 297 296 295 294 293 292 290 288 287 286 285 282 280 278 277 275 273 271 268 266 265 263 262 260 259 257 256 256 255 255 256 258
295 295 295 296 298 298 298 298 298 297 297 296 295 294 293 293 292 291 291 289 287 285 283 282 279 277 275 273 272 269 267 265 264 262 261 260 258 257 255 254 254 254 254 256
294 293 293 295 296 295 296 296 296 296 295 295 294 293 292 292 291 290 288 288 286 284 282 280 278 276 273 271 269 267 265 264 262 261 260 259 257 256 255 253 252 253 253 254
291 291 292 293 293 293 294 293 294 294 293 293 292 291 290 290 290 288 287 287 286 284 282 279 277 276 273 270 267 265 263 262 261 259 258 257 256 255 254 252 251 251 252 252
Height
5824 5830 5834 5839 5842 5846 5849 5851 5853 5855 5856 5857 5857 5858 5858 5858 5858 5858 5858 5857 5857 5856 5855 5855 5854 5854 5854 5854 5853 5852 5851 5849 5848 5846 5843 5840 5837 5833 5829 5826 5821 5817 5813 5809
5827 5831 5835 5838 5842 5845 5848 5850 5852 5853 5854 5855 5856 5856 5856 5856 5856 5856 5856 5855 5855 5854 5853 5853 5852 5852 5852 5852 5851 5850 5849 5848 5846 5844 5842 5839 5835 5832 5828 5824 5820 5816 5812 5808
5828 5832 5835 5838 5841 5844 5847 5850 5851 5853 5853 5854 5855 5855 5855 5855 5855 5854 5853 5853 5853 5852 5851 5851 5850 5850 5850 5849 5849 5848 5847 5846 5845 5843 5840 5837 5834 5831 5827 5823 5819 5815 5811 5807
5828 5832 5836 5839 5842 5844 5847 5849 5850 5851 5852 5853 5854 5854 5854 5854 5853 5852 5851 5850 5850 5850 5849 5849 5848 5848 5847 5847 5847 5846 5845 5844 5843 5841 5838 5836 5833 5829 5826 5822 5818 5814 5810 5806
5831 5835 5838 5840 5843 5845 5847 5848 5849 5851 5852 5852 5852 5853 5853 5852 5851 5850 5849 5848 5848 5847 5847 5846 5846 5845 5845 5845 5845 5844 5843 5842 5841 5839 5837 5834 5831 5828 5825 5821 5818 5814 5809 5805
5834 5836 5839 5842 5843 5845 5847 5849 5850 5851 5851 5852 5851 5851 5851 5850 5849 5848 5847 5846 5846 5845 5844 5844 5843 5843 5842 5842 5842 5842 5841 5840 5839 5837 5835 5833 5830 5827 5824 5820 5817 5813 5809 5805
5835 5838 5840 5842 5844 5846 5847 5849 5850 5850 5850 5851 5850 5849 5849 5848 5847 5846 5845 5844 5843 5843 5842 5841 5841 5840 5840 5840 5840 5839 5839 5838 5837 5835 5833 5831 5829 5826 5823 5820 5816 5813 5809 5805
5837 5839 5841 5843 5844 5845 5847 5848 5850 5850 5850 5849 5848 5847 5848 5846 5845 5844 5843 5842 5841 5841 5840 5839 5838 5838 5837 5837 5837 5837 5836 5835 5834 5833 5831 5830 5827 5825 5822 5819 5816 5812 5808 5805
5839 5841 5842 5843 5844 5845 5846 5847 5848 5848 5848 5848 5847 5846 5845 5844 5843 5841 5841 5840 5839 5838 5837 5836 5835 5835 5834 5834 5834 5834 5833 5832 5832 5831 5829 5828 5826 5823 5821 5818 5815 5811 5808 5805
5840 5841 5842 5843 5844 5845 5846 5846 5846 5846 5846 5845 5845 5844 5843 5842 5840 5839 5838 5837 5836 5835 5834 5833 5832 5832 5831 5831 5831 5830 5830 5829 5829 5828 5827 5825 5824 5822 5819 5817 5814 5811 5807 5804
5841 5842 5843 5843 5844 5844 5845 5845 5844 5844 5844 5843 5843 5844 5841 5839 5837 5836 5835 5834 5833 5832 5831 5830 5829 5828 5828 5827 5827 5827 5826 5826 5825 5825 5824 5823 5821 5819 5817 5815 5812 5810 5807 5804
5841 5842 5842 5843 5843 5843 5843 5843 5842 5842 5842 5840 5840 5843 5838 5836 5834 5833 5832 5831 5830 5829 5828 5827 5826 5825 5824 5823 5823 5823 5823 5822 5822 5821 5821 5820 5818 5817 5815 5813 5811 5808 5805 5803
5841 5842 5842 5842 5844 5843 5841 5841 5840 5839 5839 5838 5837 5839 5835 5833 5831 5830 5828 5827 5826 5825 5824 5823 5822 5821 5820 5819 5819 5819 5818 5818 5818 5818 5817 5816 5815 5814 5812 5810 5808 5806 5804 5801
5841 5841 5842 5842 5841 5840 5839 5839 5837 5836 5835 5834 5834 5833 5831 5829 5828 5826 5825 5823 5822 5821 5820 5818 5817 5816 5816 5815 5815 5814 5814 5813 5813 5813 5813 5812 5811 5810 5809 5807 5806 5804 5802 5800
5840 5840 5839 5839 5838 5837 5836 5836 5834 5833 5832 5831 5830 5828 5827 5825 5824 5823 5821 5820 5818 5817 5816 5814 5813 5812 5811 5810 5810 5809 5809 5808 5808 5808 5808 5807 5807 5806 5805 5804 5803 5801 5799 5797
5838 5837 5837 5836 5835 5834 5833 5832 5831 5829 5828 5827 5825 5824 5822 5821 5820 5818 5817 5815 5814 5812 5811 5810 5809 5807 5806 5805 5804 5804 5804 5803 5803 5803 5802 5802 5802 5801 5801 5800 5799 5797 5796 5794
5835 5835 5834 5834 5832 5831 5830 5828 5827 5825 5824 5823 5821 5820 5818 5816 5815 5814 5812 5810 5808 5807 5806 5804 5803 5802 5801 5800 5799 5798 5798 5797 5797 5797 5796 5796 5796 5796 5796 5795 5794 5793 5792 5791
5832 5831 5830 5830 5829 5828 5829 5824 5822 5821 5819 5818 5816 5814 5812 5811 5810 5808 5806 5805 5803 5802 5800 5799 5797 5796 5795 5794 5793 5792 5791 5791 5790 5790 5790 5790 5790 5790 5789 5789 5789 5788 5787 5786
5828 5827 5826 5825 5823 5823 5822 5819 5817 5815 5813 5812 5810 5808 5807 5805 5803 5802 5800 5798 5797 5795 5794 5792 5791 5789 5788 5787 5785 5785 5784 5783 5783 5783 5783 5782 5782 5782 5782 5783 5783 5782 5782 5781
5823 5822 5821 5819 5817 5816 5817 5814 5811 5810 5807 5805 5803 5802 5800 5798 5796 5795 5792 5791 5789 5787 5786 5784 5783 5781 5780 5779 5777 5777 5776 5776 5775 5775 5775 5774 5775 5775 5775 5775 5775 5776 5775 5775
5817 5815 5814 5812 5809 5808 5807 5806 5805 5803 5801 5798 5795 5793 5791 5789 5787 5785 5783 5782 5780 5778 5777 5775 5774 5772 5771 5769 5768 5768 5767 5767 5767 5766 5766 5766 5766 5766 5767 5767 5768 5768 5768 5768
5810 5808 5806 5804 5802 5802 5799 5797 5795 5793 5790 5787 5785 5783 5780 5778 5776 5774 5772 5771 5769 5768 5766 5765 5763 5762 5760 5759 5758 5757 5757 5757 5756 5756 5756 5756 5757 5757 5757 5758 5759 5759 5760 5761
5802 5801 5798 5796 5796 5792 5789 5787 5784 5782 5779 5776 5774 5771 5768 5766 5764 5762 5760 5758 5757 5755 5754 5752 5751 5750 5749 5747 5746 5746 5745 5745 5745 5745 5746 5746 5746 5747 5747 5748 5749 5750 5751 5752
5793 5790 5788 5786 5784 5781 5778 5775 5773 5770 5767 5764 5761 5759 5756 5753 5751 5748 5746 5744 5742 5741 5739 5738 5737 5736 5735 5734 5733 5732 5732 5732 5732 5732 5733 5734 5735 5736 5736 5737 5738 5740 5741 5742
5783 5780 5777 5775 5773 5769 5767 5764 5761 5758 5754 5751 5748 5745 5742 5739 5736 5734 5731 5729 5726 5724 5723 5721 5720 5720 5720 5719 5719 5718 5717 5717 5718 5718 5720 5721 5722 5724 5725 5726 5727 5729 5731 5732
5772 5768 5765 5764 5761 5757 5755 5752 5748 5745 5742 5738 5734 5731 5727 5724 5720 5717 5715 5712 5709 5707 5705 5703 5702 5702 5702 5702 5702 5701 5700 5701 5702 5703 5705 5706 5708 5710 5712 5714 5716 5717 5719 5721